Home   Weather   Hoofddorp   Past weeks

Flag for Netherlands Past Weather in Hoofddorp, Netherlands — Yesterday and Last 2 Weeks

57 °F

Partly sunny.

Feels Like: 54 °F
Forecast: 47 / 59 °F
Wind: 15 mph from West

Location: Amsterdam Schiphol Airport

Current Time: Oct 28, 2016 at 10:36:28 AM

Latest Report: Oct 28, 2016 at 9:55 AM

Visibility: N/A

Pressure: 30.42 "Hg

Humidity: 88%

Dew Point: 54 °F

Location of HoofddorpLocation

Past Weather in Hoofddorp — Graph


Hoofddorp Temperature Yesterday

Maximum temperature yesterday: 59 °F (at 12:55 PM)
Minimum temperature yesterday: 46 °F (at 6:25 AM)
Average temperature yesterday: 53 °F

High & Low Weather Summary for the Past Weeks

High66 °F (Oct 16, 2:55 PM)100% (Oct 15, 12:25 AM)30.45 "Hg (Oct 15, 12:25 AM)
Low34 °F (Oct 23, 4:55 AM)54% (Oct 23, 2:55 PM)29.65 "Hg (Oct 15, 1:25 AM)
Average50 °F87%30.03 "Hg
* Reported Oct 13 9:25 AM — Oct 28 9:25 AM, Hoofddorp, Weather by CustomWeather, © 2016

Note: Actual official high and low records may vary slightly from our data, if they occured in-between our weather recording intervals... More about our weather records


Hoofddorp Weather History for the Previous 24 Hours

Scroll right to see more
Time TempWeatherWind HumidityBarometerVisibility
9:25 AM
Fri, Oct 28
57 °FScattered clouds.14 mph88%30.42 "HgN/A
8:55 AM57 °FScattered clouds.13 mph88%30.42 "HgN/A
8:25 AM57 °FPassing clouds.15 mph88%30.39 "HgN/A
7:55 AM57 °FPassing clouds.14 mph82%30.39 "HgN/A
7:25 AM57 °FPassing clouds.15 mph82%30.39 "HgN/A
6:55 AM57 °FOvercast.15 mph82%30.39 "HgN/A
6:25 AM57 °FPassing clouds.16 mph82%30.39 "HgN/A
5:55 AM57 °FPassing clouds.15 mph82%30.39 "HgN/A
5:25 AM57 °FPassing clouds.15 mph82%30.39 "HgN/A
4:55 AM57 °FPassing clouds.14 mph82%30.39 "HgN/A
4:25 AM57 °FPassing clouds.14 mph82%30.39 "HgN/A
3:55 AM57 °FPartly cloudy.15 mph82%30.39 "HgN/A
3:25 AM57 °FPartly cloudy.13 mph82%30.39 "HgN/A
2:55 AM57 °FPassing clouds.13 mph82%30.39 "HgN/A
2:25 AM57 °FPassing clouds.13 mph82%30.39 "HgN/A
1:55 AM57 °FOvercast.12 mph82%30.39 "HgN/A
1:25 AM57 °FOvercast.10 mph77%30.39 "HgN/A
12:55 AM55 °FOvercast.9 mph88%30.39 "HgN/A
12:25 AM54 °FOvercast.8 mph94%30.39 "HgN/A
11:55 PM
Thu, Oct 27
54 °FOvercast.8 mph94%30.42 "HgN/A
11:25 PM54 °FOvercast.10 mph94%30.42 "Hg5 mi
10:55 PM54 °FPassing clouds.10 mph94%30.42 "HgN/A
10:25 PM54 °FPassing clouds.10 mph94%30.42 "HgN/A
9:55 PM54 °FPassing clouds.12 mph88%30.42 "HgN/A
9:25 PM54 °FPassing clouds.10 mph88%30.42 "HgN/A
8:55 PM52 °FPassing clouds.12 mph94%30.42 "HgN/A
8:25 PM54 °FPassing clouds.10 mph88%30.42 "HgN/A
7:55 PM54 °FPassing clouds.14 mph88%30.42 "HgN/A
7:25 PM54 °FPassing clouds.10 mph88%30.42 "HgN/A
6:55 PM54 °FPassing clouds.10 mph88%30.42 "HgN/A
6:25 PM54 °FPassing clouds.12 mph88%30.42 "HgN/A
5:55 PM55 °FPassing clouds.14 mph82%30.42 "HgN/A
5:25 PM55 °FPassing clouds.14 mph82%30.42 "HgN/A
4:55 PM55 °FPassing clouds.15 mph82%30.42 "HgN/A
4:25 PM57 °FPassing clouds.16 mph77%30.42 "HgN/A
3:55 PM57 °FScattered clouds.16 mph82%30.42 "HgN/A
3:25 PM57 °FScattered clouds.15 mph82%30.42 "HgN/A
2:55 PM57 °FScattered clouds.16 mph88%30.45 "HgN/A
2:25 PM59 °FScattered clouds.16 mph82%30.45 "Hg6 mi
1:55 PM59 °FScattered clouds.15 mph82%30.45 "Hg6 mi
1:25 PM59 °FScattered clouds.14 mph82%30.45 "Hg6 mi
12:55 PM59 °FPassing clouds.13 mph82%30.45 "Hg6 mi
11:25 AM54 °FBroken clouds.13 mph94%30.45 "Hg1 mi
10:55 AM52 °FBroken clouds.14 mph100%30.45 "Hg1 mi
10:25 AM52 °FFog.10 mph100%30.45 "Hg0 mi
Weather by CustomWeather, © 2016

See weather overviewHow to use our weather pages